Back to catalog

INTELSAT 33E DEB

AliveGEO
NORAD 64398·DEBRIS· XX

Launched Aug 24, 2016 from Guiana Space Centre

Loading…

TLE

FreshSource: Space-Track

Epoch: Sep 12, 2026, 03:55 UTC

1 64398U 16053AC  26255.16388253  .00000103  00000-0  00000-0 0  9995
2 64398   1.5953  56.0841 0089637 334.8491  25.5896  1.00972150  6897

Track INTELSAT 33E DEB in real time with AllMySat

Download on the App Store